Regional Weather Roundup
Issued by NWS Upton, NY

Current Version | Previous Version | Graphics & Text | Print | Product List | Glossary Off
Versions: 1 2 3 4 5 6 7 8 9 10 11 12 13 14 15 16 17 18 19 20 21 22 23 24 25 26 27

000
ASUS41 KOKX 100609
RWROKX

REGIONAL WEATHER ROUNDUP
NATIONAL WEATHER SERVICE NEW YORK NY
100 AM EST SUN DEC 10 2017

NOTE: "FAIR" INDICATES FEW OR NO CLOUDS BELOW 12,000 FEET WITH NO
SIGNIFICANT WEATHER AND/OR OBSTRUCTIONS TO VISIBILITY.

NYZ071-072-176-178-NJZ106-104-100700-
NEW YORK CITY METRO AREA

CITY           SKY/WX    TMP DP  RH WIND       PRES   REMARKS
Central Park   CLOUDY    31  28  89 VRB5      29.74F FOG     WCI  26
Bronx Bot Gard   N/A     32  30  93 NW6       29.72S WCI  26
Bronx Lehman C   N/A     32  30  93 NW6         N/A  WCI  26
LaGuardia APRT CLOUDY    33  29  85 NW7       29.72S WCI  27
Queens College   N/A     32  30  93 NW6         N/A  WCI  26
Kennedy INTL   MOCLDY    32  29  88 W10       29.74R WCI  24
Breezy Point     N/A    N/A N/A N/A NW9         N/A
Brooklyn Coll    N/A     34  30  86 W8          N/A  WCI  27
Staten Island    N/A     32  32 100 SW3         N/A
Newark/Liberty CLOUDY    31  28  89 W7        29.74R WCI  24
Teterboro      CLOUDY    31  27  85 NW6       29.73R WCI  25
$$

NYZ177-179-078>081-100700-
LONG ISLAND NEW YORK

CITY           SKY/WX    TMP DP  RH WIND       PRES   REMARKS
Jones Beach      N/A     32 N/A N/A NW12        N/A  WCI  23
Wantagh          N/A     32  32 100 W5          N/A  WCI  27
Matinecock PT    N/A     32 N/A N/A NW14        N/A  WCI  22
Farmingdale    CLOUDY    32  29  88 NW6       29.71S WCI  26
MacArthur/ISP  CLOUDY    33  32  96 NW6       29.68F WCI  28
Shirley        CLOUDY    33  33 100 NW6       29.68F WCI  28
Mt Sinai Harb    N/A    N/A N/A N/A N12         N/A
Westhampton    LGT SNOW  33  31  92 NW9       29.69S FOG     WCI  25
East Hampton   LGT SNOW  32  31  96 NW6       29.66S WCI  26
Southold         N/A     32  32 100 N13         N/A  WCI  22
Montauk          N/A     36  33  89 NW12      29.66R WCI  28
$$

NYZ052-065-067-100700-
HUDSON VALLEY

CITY           SKY/WX    TMP DP  RH WIND       PRES   REMARKS
White Plains   CLOUDY    30  27  88 NW12      29.69S WCI  20
Larchmont Harb   N/A    N/A N/A N/A W10         N/A
Croton On Huds   N/A    N/A N/A N/A NW1         N/A
Somers           N/A     28  27  93 NW3         N/A
Brewster         N/A     28  27  93 NW2         N/A
Newburgh       CLOUDY    27  27 100 VRB6      29.73R FOG     WCI  20
Montgomery     MOCLDY    26  24  92 CALM      29.70F
Otisville        N/A     28  25  86 W3          N/A
Warwick          N/A     30  28  93 W7          N/A  WCI  23
Suffern          N/A     30  27  86 S2          N/A
Poughkeepsie   CLOUDY    28  26  92 W5        29.72S WCI  23
Albany         FLURRIES  25  23  92 NW3       29.71F
$$

NJZ001-105-106-008-010-013-015-019>022-104-100700-
NEW JERSEY

CITY           SKY/WX    TMP DP  RH WIND       PRES   REMARKS
Newark/Liberty CLOUDY    31  28  89 W7        29.74R WCI  24
Teterboro      CLOUDY    31  27  85 NW6       29.73R WCI  25
Caldwell       CLOUDY    29  29 100 S3        29.74R
Somerville     CLOUDY    30  29  96 SW5       29.74S WCI  25
Linden         CLOUDY    31  28  90 CALM      29.75R
Perth Amboy      N/A    N/A N/A N/A W12         N/A
Sussex         CLOUDY    27  26  96 CALM      29.72F
Andover        NOT AVBL
Trenton        CLOUDY    30  28  92 W6        29.76S WCI  24
Millville      LGT SNOW  30  30 100 W10       29.81R FOG     WCI  21
Atlantic City  LGT SNOW  31  30  96 W10       29.79R FOG     WCI  22
Wrightstown    CLOUDY    30  28  93 W8        29.75R WCI  22
Toms River     FLURRIES  30  29  96 W9        29.77R WCI  22
Belmar         CLOUDY    29  28  96 W10       29.75S WCI  20
$$

PAZ047>061-062-071-100700-
EASTERN PENNSYLVANIA

CITY           SKY/WX    TMP DP  RH WIND       PRES   REMARKS
Philadelphia   CLOUDY    32  27  81 W8        29.81R WCI  25
Allentown      CLEAR     22  18  85 SW9       29.76F FOG     WCI  12
Scranton       PTCLDY    23  18  81 SW3       29.73F
$$

CTZ002-004>006-009-010-012-RIZ004-006-007-MAZ004-011-015-100700-
SOUTHERN NEW ENGLAND
 IN CT

CITY           SKY/WX    TMP DP  RH WIND       PRES   REMARKS
Bradley INTL   LGT SNOW  30  28  92 CALM      29.66F
Hartford       CLOUDY    31  29  92 CALM      29.68F
Danbury        CLOUDY    29  25  85 W5        29.69S WCI  24
Wtrbury/Oxford CLOUDY    28  26  92 W3        29.65F
Norwalk Harbor   N/A    N/A N/A N/A NW10        N/A
Bridgeport     CLOUDY    32  28  85 NW7       29.68F WCI  26
Meriden        CLOUDY    30  28  92 NW3       29.67F
New Haven      CLOUDY    32  29  88 N6        29.67F WCI  26
Chester        CLOUDY    30  28  93 N8        29.65S WCI  23
Groton         LGT SNOW  32  29  88 NW10      29.65R FOG     WCI  24
Wilimantic     CLOUDY    32  28  85 CALM      29.66F

 IN RI

CITY           SKY/WX    TMP DP  RH WIND       PRES   REMARKS
Providence     CLOUDY    32  30  92 NW10      29.63S WCI  24
Block Island   LGT RAIN  34  32  92 NW10G18   29.63R WCI  26
Westerly       LGT SNOW  33  31  92 NW8       29.65R FOG     WCI  26
 IN MA

CITY           SKY/WX    TMP DP  RH WIND       PRES   REMARKS
Boston         LGT SNOW  31  29  92 NW14G21   29.63S FOG     WCI  21
Worcester      FLURRIES  27  24  89 NW8       29.59F WCI  19
Westfield      FLURRIES  29  28  96 CALM      29.65F
Provincetown   LGT RAIN  38  36  92 N17       29.55F WCI  28
Nantucket      CLOUDY    40  40 100 N17G26    29.54S WCI  31
$$

ANZ330-335-338-340-345-350-353-355-100700-
COASTAL MARINE OBSERVATIONS


STATION/POSITION TIME  SKY/WX   TEMP    WIND        PRES    VSBY  WAVE
                                AIR SEA DIR/SP/G                  HT/PER
                 (UTC)          (F)     (DEG/KT/KT) (MB)    (MI)  (FT/S)
NY HARB ENTRANCE 0450            36 52  340/ 16/ 19 1005.6          5/ 7
20 S FIRE ISLAND 0450            37 53  320/ 16/ 17 1005.4          6/ 8
GREAT SOUTH BAY  0530            33 45  330/ 10/ 14   N/A
HUDSON CANYON    0450            44 56  340/ 16/ 19 1003.9         10/ 9
KINGS POINT      0530            32 45   20/  6/  9 1007.0
EXECUTION ROCKS  0530            33     340/ 10/ 12   N/A
WESTERN LI SOUND 0519            32     330/ 10/ 14   N/A           1/ 4
CENTRAL LI SOUND 0515            35     340/ 16/ 19   N/A           2
ROBBINS REEF     0542                   280/ 11/ 12 1007.3
$$


>>>>>>>>>>>>>>>>>>>>>>>>>>>> KEY <<<<<<<<<<<<<<<<<<<<<<<<<<<
>                                                          <
>     SKY/WX - Sky Condition/Present Weather               <
>     TMP    - Temperature in Fahrenheit                   <
>     DP     - Dew Point in Fahrenheit                     <
>     RH     - Relative Humidity in Percent                <
>     WIND   - Direction (from) and Speed in MPH           <
>     PRES   - Mean Sea Level Pressure (inches of Hg)      <
>     WCI    - Wind Chill Index                            <
>     VSB    - VISIBILITY IN MILES                         <
>     HX     - HEAT INDEX                                  <
>     TC     - TEMPERATURE IN CELSIUS                      <
>     VRB    - VARIABLE WIND DIRECTION                     <
>                                                          <
>>>>>>>>>>>>>>>>>>>>>>>>>>>> KEY <<<<<<<<<<<<<<<<<<<<<<<<<<<




USA.gov is the U.S. government's official web portal to all federal, state and local government web resources and services.